Regional Weather Roundup
Issued by NWS

Home | Current Version | Previous Version | Graphics & Text | Print | Product List | Glossary On
Versions: 1 2 3 4 5 6 7 8 9 10 11 12 13 14 15 16 17 18 19 20 21 22 23 24 25 26 27 28 29 30 31 32 33 34 35 36 37 38 39 40 41 42 43 44 45 46 47 48 49 50
000
ASUS43 KDTX 261301
RWRMI
MICHIGAN HOURLY REGIONAL WEATHER ROUNDUP
NATIONAL WEATHER SERVICE DETROIT/PONTIAC MI
900 AM EDT FRI MAY 26 2017

NOTE: "FAIR" INDICATES FEW OR NO CLOUDS BELOW 12,000 FEET WITH NO
SIGNIFICANT WEATHER AND/OR OBSTRUCTION TO VISIBILITY.

MIZ047>049-052>055-059>063-066>070-074>076-081>083-261400-
SOUTHEAST LOWER MICHIGAN

CITY           SKY/WX    TMP DP  RH WIND       PRES   REMARKS
ADRIAN         CLOUDY    57  51  80 N8        29.85R
ALMA           CLOUDY    56  53  86 NW6       29.84R
ANN ARBOR      CLOUDY    57  52  83 NW8       29.82R
BAD AXE        FOG       53  53 100 NW5       29.80R VSB 3/4
CARO           CLOUDY    56  54  94 NW9       29.79S
DETROIT CITY   CLOUDY    57  52  83 NW8       29.81R
DETROIT        CLOUDY    57  53  86 W8        29.83R
FLINT          CLOUDY    57  53  86 NW9       29.82R
GROSSE ILE     CLOUDY    57  52  82 NW7       29.81R
HILLSDALE      CLOUDY    55  50  82 NW8       29.85R
HOWELL         CLOUDY    56  51  84 NW7       29.83R

CITY           SKY/WX    TMP DP  RH WIND       PRES   REMARKS
JACKSON        PTSUNNY   60  52  74 NW7       29.84R
LAMBERTVILLE   CLOUDY    58  52  82 NW5       29.84R
LANSING        CLOUDY    59  50  72 NW7       29.84R
LAPEER         CLOUDY    56  54  95 NW7       29.80S
MASON          CLOUDY    58  52  82 NW7       29.84R
MONROE         CLOUDY    58  52  79 NW7       29.82R
MT. CLEMENS    CLOUDY    57  57 100 W10       29.78R
PONTIAC        CLOUDY    55  52  89 NW12      29.80R
PORT HOPE        N/A     50  49  96 NW9       29.77R
PORT HURON     CLOUDY    55  52  88 NW7       29.79R
TRI CITIES     CLOUDY    59  54  83 NW7       29.82R
MIDLAND        CLOUDY    60  52  74 NW6       29.81R
TROY           CLOUDY    57  52  81 NW8       29.83R
SAGINAW HB     CLOUDY    59  52  77 W12       29.80S
$$
MIZ043>046-050>051-056>058-064>065-071>073-077>080-261400-
SOUTHWEST LOWER MICHIGAN

CITY           SKY/WX    TMP DP  RH WIND       PRES   REMARKS
BATTLE CREEK   FOG       52  52 100 W5        29.87R VSB 1/2
BENTON HARBOR  CLOUDY    55  52  89 CALM      29.87R
BIG RAPIDS     MOSUNNY   58  50  76 N10       29.83S
COLDWATER      CLOUDY    54  54 100 CALM      29.86R FOG
FREMONT        CLOUDY    53  53 100 CALM      29.85R
HOLLAND        CLOUDY    53  52  96 SW5       29.87R FOG
GRAND RAPIDS   MOSUNNY   59  53  80 CALM      29.85R
IONIA          CLOUDY    56  52  85 N3        29.84R
KALAMAZOO      FOG       52  50  93 NW3       29.87R VSB 3/4
LUDINGTON      CLOUDY    51  51 100 CALM      29.85R FOG
MARSHALL       CLOUDY    56  55  98 W5        29.86R
MOUNT PLEASANT CLOUDY    58  51  78 W7        29.82S
MUSKEGON       MOSUNNY   58  52  80 NE5       29.86R
SOUTH HAVEN    CLOUDY    54  52  93 SW3       29.88R
$$
MIZ016>042-261400-
NORTHERN LOWER MICHIGAN

CITY           SKY/WX    TMP DP  RH WIND       PRES   REMARKS
ALPENA         CLOUDY    56  55  97 NW8       29.80S
BEAVER ISLAND  MOSUNNY   55  51  86 NW6       29.84R
BELLAIRE       CLOUDY    58  52  79 CALM      29.83R
CADILLAC       CLOUDY    55  51  86 NW5       29.84R
CHARLEVOIX     MOSUNNY   55  54  99 W6        29.86S
FRANKFORT      FOG       52  50  93 CALM      29.86R VSB 3/4
GAYLORD          N/A     56  51  84 N5        29.83R
GRAYLING       CLOUDY    56  53  87 N7        29.83S
HARBOR SPRINGS FOG       46  46 100 SW3       29.83S VSB<1/4
HOUGHTON LAKE  CLOUDY    57  51  80 N10       29.82S
MANISTEE       FOG       51  51 100 CALM      29.85R VSB 1/2
OSCODA         CLOUDY    56  55  96 W13       29.78R
PELLSTON       MOSUNNY   60  52  74 N7        29.82S
ROGERS CITY    CLOUDY    55  54  96 NW7       29.82R
TRAVERSE CITY  PTSUNNY   56  51  84 W5        29.83R
$$
MIZ007>008-015-261400-
EASTERN UPPER MICHIGAN

CITY           SKY/WX    TMP DP  RH WIND       PRES   REMARKS
KINROSS        SUNNY     58  53  84 N8        29.82R
MACKINAC ISLAN SUNNY     57  57  99 N7        29.82R
NEWBERRY       SUNNY     56  53  91 N5        29.83R
S. S. MARIE    SUNNY     61  53  75 CALM      29.81S
MUNISING         N/A     51  47  86 NE6       29.84R
$$
MIZ004>006-011>014-085-261400-
CENTRAL UPPER MICHIGAN

CITY           SKY/WX    TMP DP  RH WIND       PRES   REMARKS
MANISTIQUE     SUNNY     60  54  80 N5        29.83S
ESCANABA       SUNNY     58  52  80 E3        29.84S
MENOMINEE      PTSUNNY   57  53  86 CALM      29.85F
SAWYER-GWINN   SUNNY     55  50  82 SW3       29.85R
$$
MIZ001>003-009>011-084-261400-
WESTERN UPPER MICHIGAN

CITY           SKY/WX    TMP DP  RH WIND       PRES   REMARKS
IRON MOUNTAIN  PTSUNNY   53  49  86 CALM      29.83F
HOUGHTON       CLOUDY    56  47  71 S3        29.81S
COPPER HARBOR    N/A     61  50  67 VRB6      29.80S
IRONWOOD       CLOUDY    56  54  93 CALM      29.78F
$$

ABBREVIATIONS USED IN REMARKS
   TC - TEMPERATURE IN CELSIUS
  WCI - WIND CHILL INDEX
   HX - HEAT INDEX
  VSB - VISIBILITY





USA.gov is the U.S. government's official web portal to all federal, state and local government web resources and services.